Torna al catalogo

COSMOS 2251 DEB

AttivoLEO
NORAD 38479·DEBRIS·🇷🇺 Russia

Lanciato Jun 16, 1993 da Plesetsk Cosmodrome

Loading…

Prossimi Passaggi (prossime 24 ore)

TLE

In scadenzaSource: Space-Track

Epoca: Sep 10, 2026, 03:36 UTC

1 38479U 93036BTP 26253.15042501  .00002883  00000-0  87699-3 0  9991
2 38479  74.0119  42.0800 0083006  85.7156  89.2750 14.40543511685938

Traccia COSMOS 2251 DEB in tempo reale con AllMySat

Download on the App Store